[[{"header":{"parameterUnit":"m.s-1","parameterCategory":1,"la1":30.2991,"la2":30.254,"lo1":-89.0895,"lo2":-89.0444,"dy":0.0017,"dx":0.0017,"nx":28,"ny":28,"refTime":"2025-01-31T09:00:00:Z","depth":0,"parameterNumber":2,"parameterNumberName":"U-component_of_WINDS"},"data":[0,0,0,0,0,0,0,0,0,0,0,0,0,0,0,0,0,0,0,0,0,0,0,0,0,0,0,0,0,0,0,0,0,0,0,0,0,0,0,0,0,0,0,0,0,0,0,0,0,0,0,0,0,0,0,0,0,0,1.4496,1.4498,0,1.4704,1.4706,1.4709,1.476,1.4759,1.4757,1.4756,1.4979,1.4986,1.4993,0,0,0,0,0,0,0,0,0,0,0,0,0,1.4155,1.4161,1.4496,1.4499,1.4501,1.4703,1.4706,1.4709,1.476,1.4759,1.4757,1.4755,1.4977,1.4985,1.4994,0,0,0,0,0,0,0,0,0,0,0,0,0,1.4327,1.4162,1.4495,1.4551,1.4558,1.4703,1.4706,1.471,1.4761,1.4759,1.4757,1.4755,1.4974,1.4984,1.4995,1.5103,0,0,1.5028,1.5033,0,0,0,0,0,0,0,0,1.4317,1.4339,1.454,1.4547,1.4555,1.4704,1.4668,1.4842,1.4761,1.4684,1.4756,1.4754,1.489,1.4907,1.4951,1.5113,1.5123,1.5029,1.5036,1.504,1.5043,0,0,0,0,0,0,0,1.4305,1.4331,1.4579,1.4543,1.4552,1.4569,1.4591,1.4701,1.4796,1.4691,1.4695,1.4718,1.4894,1.4941,1.4957,1.5126,1.5029,1.5038,1.5045,1.5049,1.5392,1.5394,0,0,0,0,0,0,1.4282,1.432,1.4572,1.4585,1.4428,1.4577,1.4602,1.4658,1.4795,1.4814,1.472,1.472,1.4923,1.4944,1.4965,1.5103,1.504,1.505,1.5056,1.5389,1.5392,1.5395,0,0,0,0,0,0,1.4274,1.4304,1.4564,1.4454,1.4488,1.4585,1.4648,1.4664,1.471,1.4817,1.4835,1.4749,1.4922,1.495,1.5068,1.5111,1.5055,1.5065,1.5386,1.539,1.5394,1.5377,0,0,0,0,0,0,1.4264,1.4301,1.434,1.4454,1.4494,1.466,1.4651,1.4669,1.4728,1.473,1.485,1.4868,1.4923,1.5052,1.5079,1.5125,1.5073,1.5383,1.5388,1.5392,1.5374,1.538,1.5385,0,0,0,0,0,1.4252,1.4329,1.4342,1.4372,1.4544,1.4662,1.4685,1.4744,1.4731,1.4773,1.4842,1.4864,1.5101,1.5064,1.5095,1.5144,1.538,1.5386,1.5392,1.5372,1.5379,1.5385,0,0,0,0,0,0,1.422,1.4345,1.436,1.4475,1.4557,1.4671,1.4725,1.4749,1.4839,1.4838,1.491,1.4937,1.5052,1.511,1.5066,1.5258,1.5241,1.5254,1.5215,1.5223,1.5228,1.5212,1.5082,0,0,0,0,0,1.4226,1.4308,1.4414,1.4505,1.4545,1.4628,1.4682,1.472,1.4809,1.4845,1.4923,1.5012,1.5107,1.5168,1.5261,1.5383,1.5412,1.5433,1.5438,1.5442,1.5452,1.5524,1.5536,1.5414,1.5414,1.5414,0,0,1.424,1.4318,1.4366,1.4501,1.4569,1.4656,1.4657,1.4749,1.4815,1.4861,1.4977,1.5037,1.5141,1.5262,1.532,1.5315,1.5492,1.5449,1.5451,1.546,1.5531,1.5543,1.5553,1.5418,1.5418,1.5417,0,0,1.431,1.4376,1.446,1.4528,1.463,1.4685,1.4705,1.4815,1.4856,1.4973,1.501,1.5092,1.5253,1.5327,1.5385,1.5485,1.551,1.5514,1.5542,1.5611,1.5621,1.5629,1.5668,1.568,1.5523,1.5523,1.5523,0,1.4315,1.4444,1.4502,1.4592,1.4652,1.4693,1.4782,1.4846,1.4975,1.5017,1.5009,1.5213,1.5286,1.5427,1.5451,1.5496,1.5525,1.5501,1.5614,1.5623,1.5633,1.567,1.5684,1.5523,1.5523,1.5523,1.5523,0,1.4447,1.4536,1.4593,1.4713,1.478,1.4868,1.4943,1.5004,1.5037,1.5094,1.5215,1.5304,1.5417,1.5454,1.5488,1.56,1.5594,1.5598,1.5584,1.5643,1.568,1.5694,1.5523,1.5523,1.5523,1.5523,0,0,1.4503,1.4653,1.4674,1.473,1.4846,1.4918,1.5011,1.5118,1.5171,1.5259,1.5341,1.5477,1.5483,1.5549,1.5592,1.5653,1.5729,1.5651,1.5654,1.5664,1.5863,1.586,1.5875,1.5746,1.5749,1.5751,1.5855,0,1.4589,1.4751,1.4807,1.4944,1.5029,1.5071,1.5152,1.5235,1.5291,1.5375,1.5439,1.5534,1.5533,1.5574,1.5635,1.5707,1.5771,1.57,1.5827,1.5831,1.5801,1.5894,1.5891,1.5984,1.5869,1.5872,1.5874,0,1.4711,1.4797,1.4941,1.5049,1.5087,1.5158,1.5263,1.5341,1.5437,1.5475,1.5549,1.5588,1.5691,1.5668,1.5813,1.5764,1.582,1.5863,1.5868,1.5884,1.5857,1.5914,1.6015,1.603,1.5896,1.5894,1.5893,0,1.474,1.4893,1.5,1.5046,1.5174,1.5223,1.528,1.5373,1.5435,1.5528,1.557,1.5674,1.5732,1.5814,1.5881,1.5858,1.6022,1.6004,1.6059,1.6057,1.6093,1.609,1.6205,1.6125,1.6124,1.6124,1.6124,0,1.4831,1.4918,1.5014,1.508,1.5181,1.5245,1.5344,1.5404,1.5487,1.5568,1.5612,1.5688,1.5771,1.586,1.5914,1.6028,1.6053,1.6089,1.6103,1.6086,1.6082,1.6125,1.6121,1.6128,1.6127,1.6126,1.6126,0,1.488,1.4948,1.5067,1.5178,1.5208,1.5277,1.5374,1.5442,1.55,1.5603,1.5631,1.5723,1.583,1.5905,1.6042,1.6079,1.6202,1.6215,1.6169,1.6176,1.6227,1.6222,1.6377,1.6402,1.6301,1.6302,1.6303,0,1.4935,1.5003,1.512,1.5176,1.5231,1.5321,1.5384,1.5451,1.5516,1.5631,1.5686,1.5795,1.5885,1.6054,1.6137,1.6243,1.626,1.6307,1.6276,1.6258,1.6264,1.626,1.6268,1.6312,1.6312,1.6313,1.6313,0,1.5025,1.5056,1.5142,1.5242,1.5315,1.5398,1.5481,1.5526,1.5609,1.568,1.5787,1.5857,1.5997,1.6106,1.6221,1.6284,1.6314,1.6322,1.6341,1.6326,1.6297,1.6316,1.6184,1.6319,1.6318,1.6318,1.6317,1.6317,1.5081,1.5144,1.5237,1.5333,1.5402,1.548,1.5549,1.5615,1.5705,1.5822,1.5857,1.597,1.6069,1.6225,1.6289,1.6381,1.6379,1.6405,1.6412,1.6418,1.6419,1.628,1.6402,1.6402,1.6402,1.6402,1.6402,0,1.5176,1.5237,1.5325,1.5439,1.5516,1.5534,1.5628,1.5693,1.579,1.5877,1.5965,1.6091,1.6197,1.6287,1.6398,1.6455,1.6472,1.6482,1.648,1.6495,1.6414,1.6387,1.6467,1.6467,1.6467,1.6467,1.6467,1.6467,1.5234,1.5343,1.5384,1.5529,1.5591,1.5699,1.5752,1.5825,1.5895,1.6032,1.6119,1.6176,1.6266,1.6385,1.6484,1.6509,1.6549,1.6556,1.6584,1.6507,1.65,1.6493,1.6469,1.6564,1.6564,1.6658,1.6659,1.6659]},{"header":{"parameterUnit":"m.s-1","parameterCategory":1,"la1":30.2991,"la2":30.254,"lo1":-89.0895,"lo2":-89.0444,"dy":0.0017,"dx":0.0017,"nx":28,"ny":28,"refTime":"2025-01-31T09:00:00:Z","depth":0,"parameterNumber":3,"parameterNumberName":"V-component_of_WINDS"},"data":[0,0,0,0,0,0,0,0,0,0,0,0,0,0,0,0,0,0,0,0,0,0,0,0,0,0,0,0,0,0,0,0,0,0,0,0,0,0,0,0,0,0,0,0,0,0,0,0,0,0,0,0,0,0,0,0,0,0,0.7963,0.7961,0,0.7762,0.776,0.7758,0.7657,0.7656,0.7656,0.7656,0.7444,0.7438,0.7433,0,0,0,0,0,0,0,0,0,0,0,0,0,0.8254,0.8249,0.7963,0.7961,0.7958,0.7763,0.776,0.7757,0.7657,0.7656,0.7656,0.7656,0.7446,0.7439,0.7432,0,0,0,0,0,0,0,0,0,0,0,0,0,0.8098,0.8247,0.7964,0.7885,0.7876,0.7763,0.776,0.7756,0.7657,0.7656,0.7656,0.7656,0.7448,0.744,0.7431,0.738,0,0,0.7405,0.7402,0,0,0,0,0,0,0,0,0.8106,0.8087,0.7899,0.789,0.788,0.7735,0.7784,0.763,0.7657,0.774,0.7656,0.7656,0.754,0.7524,0.7486,0.737,0.7361,0.7405,0.74,0.7396,0.7393,0,0,0,0,0,0,0,0.8117,0.8095,0.7883,0.7896,0.7884,0.7857,0.7835,0.7754,0.7642,0.7732,0.7725,0.7702,0.7535,0.7495,0.748,0.7358,0.7405,0.7397,0.7392,0.7389,0.7188,0.7188,0,0,0,0,0,0,0.8142,0.8105,0.789,0.7877,0.7996,0.7852,0.7827,0.7781,0.7643,0.7622,0.7703,0.7699,0.7509,0.749,0.7473,0.7403,0.7396,0.7388,0.7383,0.7188,0.7188,0.7188,0,0,0,0,0,0,0.8149,0.8124,0.7898,0.7989,0.7958,0.7847,0.7796,0.7777,0.7737,0.7621,0.7599,0.7683,0.7508,0.7484,0.7404,0.7394,0.7384,0.7377,0.7189,0.7188,0.7188,0.7263,0,0,0,0,0,0,0.8157,0.8127,0.8108,0.7989,0.7954,0.7835,0.7795,0.7773,0.7723,0.7716,0.7596,0.7576,0.7506,0.7417,0.7396,0.7382,0.737,0.7189,0.7188,0.7188,0.7261,0.7266,0.7269,0,0,0,0,0,0.8168,0.8136,0.8107,0.8082,0.7928,0.7835,0.7814,0.7736,0.7723,0.7702,0.7627,0.758,0.7399,0.741,0.7385,0.7368,0.7189,0.7188,0.7188,0.7259,0.7265,0.7269,0,0,0,0,0,0,0.8253,0.8119,0.8086,0.8014,0.7937,0.7818,0.7789,0.7744,0.7667,0.7663,0.7568,0.7542,0.747,0.7411,0.7425,0.7311,0.7289,0.7284,0.7352,0.7356,0.736,0.7375,0.7363,0,0,0,0,0,0.8264,0.8202,0.8087,0.8035,0.7998,0.7901,0.7857,0.7804,0.7719,0.7685,0.7604,0.7522,0.7446,0.7398,0.7322,0.7253,0.7224,0.7229,0.7233,0.7237,0.7233,0.7191,0.7191,0.7186,0.7186,0.7186,0,0,0.8285,0.8204,0.817,0.805,0.7984,0.7919,0.7873,0.7807,0.7758,0.7674,0.7594,0.7532,0.7433,0.7358,0.7321,0.7307,0.7228,0.7236,0.724,0.7233,0.719,0.7191,0.7191,0.7185,0.7185,0.7185,0,0,0.829,0.8224,0.8173,0.8108,0.8009,0.7945,0.7933,0.782,0.7777,0.7695,0.7631,0.7569,0.7441,0.7374,0.7322,0.7303,0.7256,0.7281,0.7301,0.7262,0.7262,0.7262,0.7254,0.7252,0.7277,0.7277,0.7277,0,0.8328,0.8231,0.8152,0.8089,0.8038,0.7962,0.7908,0.7849,0.7729,0.7694,0.7681,0.7519,0.7447,0.7355,0.735,0.7312,0.7293,0.7293,0.7269,0.7268,0.7266,0.7258,0.7255,0.7281,0.728,0.728,0.728,0,0.8282,0.8215,0.8186,0.8075,0.802,0.7963,0.7873,0.7826,0.7779,0.7715,0.7632,0.7543,0.7448,0.7422,0.7374,0.7323,0.7317,0.7288,0.7263,0.7272,0.7262,0.7258,0.7286,0.7285,0.7284,0.7283,0,0,0.8334,0.8181,0.8172,0.8121,0.8006,0.7952,0.7891,0.78,0.7761,0.7681,0.7626,0.752,0.7492,0.7434,0.7377,0.7343,0.7332,0.7317,0.7313,0.7322,0.7269,0.7291,0.7289,0.7301,0.73,0.7299,0.7277,0,0.8322,0.8211,0.8138,0.8055,0.7992,0.7919,0.7865,0.7788,0.7727,0.7663,0.7594,0.752,0.749,0.7454,0.7417,0.7342,0.732,0.7342,0.7246,0.7244,0.7273,0.7284,0.7307,0.729,0.7272,0.7272,0.7271,0,0.8294,0.8219,0.813,0.8023,0.7994,0.7947,0.7858,0.7798,0.7709,0.7666,0.7603,0.7545,0.7475,0.7458,0.7359,0.7376,0.7332,0.729,0.7287,0.7274,0.7258,0.727,0.7283,0.728,0.7264,0.7265,0.7265,0,0.834,0.8216,0.8147,0.8106,0.7979,0.7948,0.7894,0.7804,0.7754,0.7675,0.7642,0.7555,0.7507,0.744,0.736,0.7356,0.7269,0.7246,0.723,0.7232,0.7214,0.7216,0.7219,0.7188,0.7188,0.7188,0.7188,0,0.8334,0.8282,0.8166,0.8124,0.8063,0.7979,0.7921,0.786,0.7781,0.7724,0.7655,0.7602,0.75,0.7434,0.737,0.7297,0.7276,0.7239,0.7222,0.7244,0.7249,0.7213,0.7212,0.7187,0.7188,0.7188,0.7188,0,0.8374,0.8295,0.8215,0.8103,0.8073,0.8034,0.7936,0.7891,0.7827,0.7755,0.7733,0.7631,0.755,0.7464,0.7353,0.731,0.724,0.7217,0.7271,0.7261,0.725,0.7252,0.7229,0.7221,0.7198,0.7199,0.7199,0,0.8376,0.8335,0.8219,0.8177,0.8125,0.8057,0.8007,0.7922,0.7872,0.7767,0.7734,0.7648,0.7575,0.7448,0.7363,0.7277,0.7251,0.7249,0.7237,0.7261,0.725,0.7253,0.7247,0.7253,0.7253,0.7254,0.7254,0,0.8386,0.8349,0.828,0.8197,0.8139,0.8069,0.7996,0.7965,0.7865,0.7812,0.7729,0.7673,0.756,0.7475,0.738,0.732,0.727,0.7259,0.7251,0.7272,0.7305,0.7286,0.728,0.726,0.7259,0.7259,0.7258,0.7258,0.8405,0.8365,0.8278,0.8203,0.814,0.8074,0.8026,0.7957,0.7887,0.7791,0.7745,0.7662,0.7572,0.7439,0.7381,0.7314,0.7299,0.7287,0.7283,0.7282,0.7287,0.7317,0.7296,0.7296,0.7295,0.7295,0.7295,0,0.8411,0.8352,0.8284,0.8185,0.8126,0.8087,0.8004,0.7957,0.7886,0.7808,0.7738,0.7643,0.756,0.7469,0.738,0.7343,0.7318,0.7323,0.7324,0.7311,0.7306,0.7322,0.7345,0.7345,0.7345,0.7345,0.7345,0.7345,0.8407,0.8337,0.829,0.8188,0.8127,0.8048,0.8004,0.7942,0.7879,0.7777,0.7709,0.7651,0.7567,0.7472,0.7393,0.7368,0.7338,0.735,0.7318,0.7315,0.7311,0.7307,0.7321,0.7344,0.7344,0.7328,0.7328,0.7328]}]]